Burlington Intl Information

FAA: BTV - ICAO: KBTV

Burlington Intl (Airport) Location

State Vermont
County Chittenden
City Burlington
Burlington Intl (Airport) is 3 miles east of Burlington, VT.
Latitude 44-28-19.0380N
Longitude 073-09-11.7940W
Elevation 334ft

Burlington Intl METARs

METAR KBTV 201031Z 01011G20KT 10SM BKN028 BKN032 OVC043 M08/M13 A3010 RMK AO2 T10781133 $
Altimeter 30.10"
Temperature -7.8°C (18.0°F)
Wind 10° at 11KT with gusts to 20KT
Clouds broken at 2,800ft broken at 3,200ft overcast at 4,300ft
Visibility 10.0mi
Time observed: 2022-01-20T10:31:00Z

Burlington Intl (Airport) Details

Status Operational
Activation September 1937
Ownership Public
Usage Public
Chart MONTREAL
ATC on-site Yes
Beacon schedule sunset-sunrise
Beacon color clear green

Burlington Intl (Airport) Contacts

Owner CITY OF BURLINGTON
Owner address CITY HALL, BURLINGTON, VT 05401
Owner phone 802-865-7272
Manager STEVE GILBERT
Manager address P O BOX 665, CEDAR CITY, UT 84720
Manager phone 435-586-5138

Burlington Intl Radio Frequencies

Burlington Intl (Airport) Radio Frequencies

UNICOM 122.95
Common traffic advisory frequency (CTAF) 118.3